Regional Weather Roundup
Issued by NWS

Home | Current Version | Previous Version | Text Only | Print | Product List | Glossary On
Versions: 1 2 3 4 5 6 7 8 9 10 11 12 13 14 15 16 17 18 19 20 21 22 23 24 25 26 27 28 29 30 31 32 33 34 35 36 37 38 39 40 41 42 43 44 45 46 47 48 49 50
000
ASUS43 KMPX 150210
RWRMN
WEATHER ROUNDUP FOR MINNESOTA
NATIONAL WEATHER SERVICE TWIN CITIES/CHANHASSEN MN
900 PM CDT SUN SEP 14 2014


NOTE: "FAIR" INDICATES FEW OR NO CLOUDS BELOW 12,000 FEET WITH NO
SIGNIFICANT WEATHER AND/OR OBSTRUCTIONS TO VISIBILITY. N/A MEANS
CURRENT SKY AND/OR WEATHER CONDITIONS ARE NOT AVAILABLE.

MNZ060>063-068>070-150300-
   Twin Cities Metro

CITY           SKY/WX    TMP DP  RH WIND       PRES   REMARKS
TWIN CITIES    MOCLDY    56  43  61 W7        30.13R
ST PAUL        MOCLDY    56  42  59 NW5       30.13R
CRYSTAL        MOCLDY    53  44  71 CALM      30.11S
BLAINE         PTCLDY    55  45  67 CALM      30.12R
LAKEVILLE      CLOUDY    54  45  71 NW3       30.12S
EDEN PRAIRIE   CLOUDY    57  43  59 NW6       30.12R
SOUTH ST PAUL  MOCLDY    57  42  56 W5        30.12R
LAKE ELMO      FAIR      50  45  81 CALM      30.12S
$$
MNZ001>005-007-008-013>017-022>024-027-028-150300-
   Northwest Minnesota

CITY           SKY/WX    TMP DP  RH WIND       PRES   REMARKS
BEMIDJI        CLOUDY    47  45  92 CALM      30.12S
HALLOCK        CLOUDY    48  41  76 NW3       30.13R
ROSEAU         CLOUDY    50  43  76 W7        30.11R
WARROAD        CLOUDY    48  45  87 CALM      30.11R
THIEF RVR FALL CLOUDY    48  43  81 CALM      30.12S
CROOKSTON      CLOUDY    50  45  81 CALM      30.14R
FOSSTON        CLOUDY    46  45  93 CALM      30.14R
DETROIT LAKES  PTCLDY    50  45  81 CALM      30.15R
MOORHEAD       CLOUDY    54  46  76 CALM      30.15R
PARK RAPIDS    CLEAR     42  39  89 SW3       30.12R
MAHNOMEN       CLOUDY    48  43  84 N3        30.13R
$$
MNZ006-009>011-018-025>026-150300-
   North Central Minnesota

CITY           SKY/WX    TMP DP  RH WIND       PRES   REMARKS
BAUDETTE       CLOUDY    48  45  89 W3        30.09R
FLAG ISLAND    CLOUDY    50  45  81 W12       30.07R
INTL FALLS     CLOUDY    47  45  93 W5        30.06R
WASKISH        CLOUDY    52  46  82 CALM      30.10R
BIG FORK       PTCLDY    48  43  81 W3        30.10R
LONGVILLE      CLEAR     43  41  93 CALM      30.11R
GRAND RAPIDS   CLEAR     48  41  76 W6        30.10R
CRANE LAKE     DRIZZLE   39  39 100 CALM      30.07R
ORR            CLOUDY    46  43  87 CALM      30.05R
COOK           DRIZZLE   48  45  87 W9        30.08R
WALKER         MOCLDY    43  41  95 W3        30.12R
$$
MNZ012-019>021-037-150300-
   Northeast Minnesota

CITY           SKY/WX    TMP DP  RH WIND       PRES   REMARKS
DULUTH         PTCLDY    47  41  80 W6        30.09R
ELY            CLOUDY    45  43  93 SW5       30.06R
HIBBING        CLOUDY    49  43  80 W3        30.09R
EVELETH        HVY RAIN  46  45  93 W3        30.09R
DULUTH HARBOR  MOCLDY    54  46  76 W6        30.10R
TWO HARBORS    PTCLDY    46  43  87 CALM      30.07R
SILVER BAY     PTCLDY    45  45 100 CALM      30.05S
GRAND MARAIS     N/A     49  45  86 W5        30.04R
G MARAIS ARPRT CLEAR     43  39  87 W3        30.04R
$$
MNZ029>031-032-039>041-046>048-054>057-064-150300-
   West Central Minnesota

CITY           SKY/WX    TMP DP  RH WIND       PRES   REMARKS
FERGUS FALLS   MOCLDY    50  43  76 CALM      30.14R
WHEATON        MOCLDY    48  41  76 W3        30.16R
MORRIS         MOCLDY    50  43  76 W5        30.13R
ALEXANDRIA     MOCLDY    49  43  80 CALM      30.14R
ELBOW LAKE     FAIR      47  42  82 W7        30.13R
WADENA         PTCLDY    45  43  93 CALM      30.13R
GLENWOOD       MOCLDY    52  45  76 CALM      30.14R
APPLETON       MOCLDY    52  46  82 CALM      30.14R
BENSON         MOCLDY    48  45  87 SW3       30.15R
ORTONVILLE     MOCLDY    54  41  62 NW5       30.15R
MADISON        MOCLDY    55  48  76 CALM      30.15R
WILLMAR        FAIR      52  45  76 CALM      30.16R
$$
MNZ033>034-036-042>043-049>051-058-059-150300-
   Central Minnesota

CITY           SKY/WX    TMP DP  RH WIND       PRES   REMARKS
ST CLOUD       MOCLDY    51  45  79 CALM      30.13R
SAUK CENTRE    FAIR      49  44  84 CALM      30.14R
PAYNESVILLE    CLOUDY    46  44  91 CALM      30.14R
AITKIN         CLEAR     48  43  81 CALM      30.10S
PINE RIVER     CLEAR     43  41  93 CALM      30.15R
BRAINERD       CLEAR     48  44  86 NW5       30.13R
STAPLES        MOCLDY    46  43  87 CALM      30.13R
LONG PRAIRIE   FAIR      43  43 100 CALM      30.14R
LITTLE FALLS   PTCLDY    43  41  93 CALM      30.13R
LITCHFIELD       N/A     52  48  87 CALM      30.15R
BUFFALO        MOCLDY    53  43  67 W3        30.14R
MAPLE LAKE     CLOUDY    52  46  79 CALM      30.14R
$$
MNZ037-044-045-052-053-150300-
   East Central Minnesota

CITY           SKY/WX    TMP DP  RH WIND       PRES   REMARKS
PRINCETON      MOCLDY    52  45  76 CALM      30.12S
MORA           PTCLDY    46  41  81 CALM      30.13S
CAMBRIDGE      MOCLDY    54  43  66 CALM      30.10S
RUSH CITY      MOCLDY    47  45  90 CALM      30.11S
MOOSE LAKE     PTCLDY    45  43  93 CALM      30.09S
HINCKLEY       FAIR      46  45  93 CALM      30.11S
CLOQUET        CLEAR     48  43  81 W6        30.10R
MCGREGOR       CLEAR     48  43  81 CALM      30.11R
$$
MNZ071>073-080-081-089-090-097-098-150300-
   Southwest Minnesota

CITY           SKY/WX    TMP DP  RH WIND       PRES   REMARKS
MONTEVIDEO     CLOUDY    52  45  76 CALM      30.16R
GRANITE FALLS  CLOUDY    51  46  84 S7        30.17R
CANBY          CLOUDY    51  45  80 W7        30.16R
MARSHALL       CLOUDY    48  45  87 W8        30.15R
REDWOOD FALLS  LGT RAIN  52  46  80 W8        30.15R
OLIVIA         CLOUDY    54  46  76 CALM      30.14R
PIPESTONE      CLOUDY    52  43  71 NE5       30.14S
WINDOM         CLOUDY    52  46  82 N5        30.16R
WORTHINGTON    CLOUDY    52  45  76 N5        30.16R
JACKSON        MOCLDY    52  45  76 VRB3      30.15R
TRACY          LGT RAIN  51  46  83 CALM      30.16R
SLAYTON        CLOUDY    50  43  76 CALM      30.16R
$$
MNZ065>067-074>077-082>085-091>093-150300-
   South Central Minnesota

CITY           SKY/WX    TMP DP  RH WIND       PRES   REMARKS
MANKATO        CLOUDY    55  43  62 N8        30.14R
NEW ULM        CLOUDY    54  46  76 CALM      30.14R
ST JAMES       CLOUDY    55  48  76 NW3       30.15R
FAIRMONT       CLOUDY    54  43  66 N5        30.14R
GLENCOE        CLOUDY    55  44  67 CALM      30.13R
FARIBAULT      CLOUDY    57  45  62 CALM      30.14R
OWATONNA       CLOUDY    54  48  82 CALM      30.13S
WASECA         CLOUDY    50  43  76 N3        30.15R
ALBERT LEA     CLOUDY    55  46  71 CALM      30.14R
$$
MNZ078>079-086>088-094>096-150300-
   Southeast Minnesota

CITY           SKY/WX    TMP DP  RH WIND       PRES   REMARKS
ROCHESTER      CLOUDY    56  45  66 NW5       30.14R
RED WING       CLOUDY    55  45  67 CALM      30.11R
STANTON        LGT RAIN  55  47  76 SW3       30.12R
DODGE CENTER   CLOUDY    54  48  82 N5        30.13R
WINONA         CLOUDY    55  50  82 NW3       30.12R
AUSTIN         CLOUDY    55  46  71 N3        30.13R
PRESTON        CLOUDY    57  54  88 NW5       30.14R
$$
ABBREVIATIONS USED IN REMARKS
   TC - TEMPERATURES IN CELSIUS
  WCI - WIND CHILL INDEX
   HX - HEAT INDEX
  VSB - VISIBILITY
$$



USA.gov is the U.S. government's official web portal to all federal, state and local government web resources and services.